Location: Falconara Alta
(43.6167°N, 13.4000°E)
Time: 02:32:55
(UTC+00:00)

Cosmos 841 Rocket - Pass Details

Date: 09 April 2020
Orbit: 747 x 772 km, 74.0° (Epoch: 02 June)

Event Time Altitude Azimuth Distance (km) Brightness Sun altitude
Rises 20:22:25 0° 342° (NNW) 3,256 7.7 -26.3°
Reaches altitude 10° 20:24:51 10° 345° (NNW) 2,324 6.7 -26.6°
Enters shadow 20:29:34 59° 37° (NE) 886 3.7 -27.2°
